Regional Weather Roundup
Issued by NWS State College, PA

Home | Current Version | Previous Version | Graphics & Text | Print | Product List | Glossary Off
Versions: 1 2 3 4 5 6 7 8 9 10 11 12 13 14 15 16 17 18 19 20 21 22 23 24 25 26 27 28 29 30 31 32 33 34 35 36 37 38 39 40 41 42 43 44 45 46 47 48 49 50

000
ASUS41 KCTP 282103
RWRCTP

REGIONAL WEATHER ROUNDUP
NATIONAL WEATHER SERVICE STATE COLLEGE PA
400 PM EST SAT FEB 28 2015

Note: "fair" indicates few or no clouds below 12,000 feet with no
significant weather and/or obstructions to visibility.

* = STATION THAT DOES NOT REPORT PRECIPITATION /E.G. RAIN...SNOW...ETC/
    THUNDER OR FOG.

PAZ002>004-007>009-013>016-020>023-029>032-282200-
WESTERN PENNSYLVANIA

CITY           SKY/WX    TMP DP  RH WIND       PRES   REMARKS
ERIE           SUNNY     19   2  47 N6        30.71F WCI  11
MEADVILLE      LGT SNOW  21  -4  33 S6        30.62F WCI  13
FRANKLIN*      SUNNY     21  -6  30 CALM      30.63F
NEW CASTLE     FAIR      22  -6  29 CALM      30.66F
BEAVER COUNTY  PTSUNNY   25   1  36 CALM      30.63F
BUTLER*        PTSUNNY   21  -2  35 CALM      30.66F
PITTSBURGH INT MOSUNNY   25  -1  32 E5        30.63F
PITTSBURGH     SUNNY     25  -5  26 SE6       30.62F
INDIANA*       SUNNY     27  -6  24 CALM      30.66S
LATROBE        SUNNY     27   1  33 NW6       30.64F
WASHINGTON CO* SUNNY     27   3  36 E6        30.65S
$$

PAZ004>006-010>012-017>019-024>028-033>037-041-042-045-046-049>053-282200-
CENTRAL PENNSYLVANIA

CITY           SKY/WX    TMP DP  RH WIND       PRES   REMARKS
BRADFORD       SUNNY     23  -6  28 VRB3      30.57S
DUBOIS         MOSUNNY   22  -8  26 SE6       30.59F WCI  14
CLEARFIELD     SUNNY     24  -4  29 CALM      30.63F
JOHNSTOWN      SUNNY     23  -5  29 MISG      30.54F
ALTOONA        SUNNY     25  -3  29 CALM      30.63F
STATE COLLEGE  SUNNY     25  -6  26 CALM      30.67F
WILLIAMSPORT   SUNNY     27  -4  26 W5        30.72F
SELINSGROVE    SUNNY     25  -1  32 CALM      30.74F
FT INDIANTOWN  SUNNY     26  -3  29 SW3       30.73F
CAPITAL CITY   SUNNY     27  -4  26 E5        30.74F
HARRISBURG     MOSUNNY   27  -4  26 NW3       30.74F
YORK           SUNNY     27  -5  24 CALM      30.73F
$$

PAZ038>040-043-044-047-048-054-055-060>062-067>071-282200-
EASTERN PENNSYLVANIA

CITY           SKY/WX    TMP DP  RH WIND       PRES   REMARKS
SCRANTON       SUNNY     27   0  31 CALM      30.68F
MOUNT POCONO     N/A     23  -7  26 NW6       30.59S
ALLENTOWN      SUNNY     26  -1  31 SW7       30.73F
QUAKERTOWN*    CLEAR     25   0  33 NW5       30.73F
READING        SUNNY     26  -3  28 CALM      30.74S
LANCASTER      SUNNY     25  -4  28 CALM      30.74F
COATESVILLE    CLEAR     27   1  33 W3        30.72F
POTTSTOWN      SUNNY     26  -5  25 NW3       30.76S
BLUE BELL      SUNNY     30   1  29 W3        30.74F
DOYLESTOWN     SUNNY     26  -5  25 VRB3      30.73S
WILLOW GROVE   NOT AVBL
NORTH PHILA    SUNNY     31  -1  25 NW8       30.77F
PHILADELPHIA   MOSUNNY   31  -5  21 CALM      30.77F
$$


USA.gov is the U.S. government's official web portal to all federal, state and local government web resources and services.